Location: Azul
(36.7830°S, 59.8500°W)
Time: 13:15:46
(UTC-03:00)

ISS - Pass Details

Date: 22 August 2017
Orbit: 401 x 408 km, 51.6° (Epoch: 19 August)

Event Time Altitude Azimuth Distance (km) Brightness Sun altitude
Exits shadow 06:18:39 12° 332° (NNW) 1,339 -1.5 -15.6°
Drops below altitude 10° 06:19:20 10° 343° (NNW) 1,474 -1.1 -15.5°
Sets 06:22:05 0° 8° (N) 2,325 0.2 -14.9°
